Location: Jackson Park
(37.2862°N, 79.9123°W)
Time: 13:24:33
(UTC+00:00)

Vanguard 2 Rocket - Pass Details

Date: 18 May 2026
Orbit: 553 x 3286 km, 32.9° (Epoch: 6 June)

Event Time Altitude Azimuth Distance (km) Brightness Sun altitude
Rises 23:15:57 0° 279° (W) 7,177 13.5 11.8°
Reaches altitude 10° 23:23:06 10° 264° (W) 6,233 12.7 10.5°
Maximum altitude 23:34:26 19° 229° (SW) 5,298 11.3 8.3°
Drops below altitude 10° 23:44:37 10° 192° (SSW) 5,462 10.8 6.4°
Sets 23:50:20 0° 175° (S) 6,021 10.8 5.3°
